[[{"header":{"parameterUnit":"m.s-1","parameterCategory":1,"la1":30.2991,"la2":30.254,"lo1":-89.0895,"lo2":-89.0444,"dy":0.0017,"dx":0.0017,"nx":28,"ny":28,"refTime":"2025-05-20T03:00:00:Z","depth":0,"parameterNumber":2,"parameterNumberName":"U-component_of_WINDS"},"data":[0,0,0,0,0,0,0,0,0,0,0,0,0,0,0,0,0,0,0,0,0,0,0,0,0,0,0,0,0,0,0,0,0,0,0,0,0,0,0,0,0,0,0,0,0,0,0,0,0,0,0,0,0,0,0,0,0,0,-2.4121,-2.4122,0,-2.4172,-2.4173,-2.4173,-2.4162,-2.4161,-2.416,-2.4159,-2.4213,-2.4216,-2.4218,0,0,0,0,0,0,0,0,0,0,0,0,0,-2.4016,-2.4018,-2.4121,-2.4122,-2.4122,-2.4172,-2.4173,-2.4174,-2.4162,-2.4161,-2.4159,-2.4158,-2.4213,-2.4215,-2.4218,0,0,0,0,0,0,0,0,0,0,0,0,0,-2.4064,-2.4019,-2.4121,-2.4122,-2.4123,-2.4172,-2.4173,-2.4174,-2.4162,-2.4161,-2.4159,-2.4158,-2.4212,-2.4215,-2.4219,-2.427,0,0,-2.4229,-2.4231,0,0,0,0,0,0,0,0,-2.4061,-2.4068,-2.4122,-2.4122,-2.4123,-2.4159,-2.4156,-2.4206,-2.4162,-2.4147,-2.4159,-2.4157,-2.4197,-2.4201,-2.4214,-2.4273,-2.4275,-2.423,-2.4232,-2.4233,-2.4234,0,0,0,0,0,0,0,-2.4058,-2.4066,-2.4141,-2.4122,-2.4123,-2.4122,-2.4127,-2.4165,-2.418,-2.4149,-2.4148,-2.4154,-2.4197,-2.4211,-2.4215,-2.4276,-2.423,-2.4233,-2.4235,-2.4236,-2.438,-2.4381,0,0,0,0,0,0,-2.4054,-2.4063,-2.414,-2.4143,-2.4088,-2.4125,-2.413,-2.4149,-2.4179,-2.4182,-2.4155,-2.4153,-2.4205,-2.4211,-2.4217,-2.428,-2.4233,-2.4237,-2.4239,-2.4378,-2.438,-2.4382,0,0,0,0,0,0,-2.4052,-2.4061,-2.4138,-2.4103,-2.4113,-2.4128,-2.4149,-2.4151,-2.4165,-2.4184,-2.4187,-2.4167,-2.4205,-2.4212,-2.4257,-2.4281,-2.4238,-2.4242,-2.4376,-2.4379,-2.4381,-2.4405,0,0,0,0,0,0,-2.4049,-2.406,-2.4079,-2.4103,-2.4114,-2.4176,-2.4151,-2.4153,-2.4171,-2.4169,-2.4196,-2.4199,-2.4204,-2.4252,-2.4261,-2.4286,-2.4244,-2.4374,-2.4377,-2.438,-2.4402,-2.4408,-2.4413,0,0,0,0,0,-2.4045,-2.4084,-2.408,-2.4089,-2.4138,-2.4177,-2.4184,-2.4188,-2.4173,-2.4192,-2.4205,-2.4198,-2.4277,-2.4256,-2.4266,-2.4293,-2.4372,-2.4376,-2.438,-2.4399,-2.4407,-2.4413,0,0,0,0,0,0,-2.4063,-2.4087,-2.4083,-2.4131,-2.4152,-2.4175,-2.42,-2.4196,-2.4222,-2.4219,-2.4225,-2.4231,-2.4276,-2.4289,-2.4265,-2.4344,-2.4323,-2.4329,-2.4334,-2.4341,-2.4347,-2.4342,-2.4247,0,0,0,0,0,-2.4072,-2.4101,-2.4121,-2.4161,-2.4172,-2.4184,-2.4201,-2.4203,-2.4226,-2.4235,-2.425,-2.4273,-2.4303,-2.4323,-2.4352,-2.4404,-2.441,-2.4427,-2.4432,-2.4437,-2.4442,-2.4471,-2.4479,-2.4394,-2.4394,-2.4394,0,0,-2.4092,-2.4109,-2.4127,-2.4165,-2.4182,-2.4212,-2.4192,-2.4225,-2.4248,-2.424,-2.4283,-2.4295,-2.4321,-2.437,-2.4392,-2.4382,-2.4467,-2.4442,-2.4445,-2.4448,-2.4476,-2.4484,-2.4491,-2.4397,-2.4396,-2.4396,0,0,-2.4144,-2.4159,-2.4194,-2.4211,-2.4237,-2.4244,-2.4253,-2.4277,-2.4285,-2.4328,-2.4323,-2.4351,-2.4403,-2.4421,-2.4438,-2.4498,-2.4492,-2.4507,-2.4535,-2.4564,-2.457,-2.4576,-2.4598,-2.4605,-2.4512,-2.4512,-2.4512,0,-2.4165,-2.421,-2.4213,-2.4247,-2.4264,-2.4258,-2.4295,-2.4311,-2.4345,-2.4358,-2.4346,-2.4411,-2.4428,-2.4481,-2.4496,-2.4509,-2.452,-2.4503,-2.4569,-2.4575,-2.458,-2.4601,-2.4609,-2.4514,-2.4513,-2.4513,-2.4513,0,-2.4236,-2.4267,-2.4293,-2.4324,-2.4345,-2.438,-2.439,-2.441,-2.4411,-2.442,-2.4465,-2.4485,-2.4518,-2.4531,-2.4532,-2.4585,-2.4578,-2.4567,-2.4546,-2.459,-2.4609,-2.4617,-2.4516,-2.4515,-2.4515,-2.4514,0,0,-2.4299,-2.4333,-2.4342,-2.4357,-2.4384,-2.4409,-2.4444,-2.4476,-2.4494,-2.4517,-2.4547,-2.4592,-2.4583,-2.4601,-2.4604,-2.4629,-2.4676,-2.4616,-2.4617,-2.4626,-2.4736,-2.4743,-2.4752,-2.4673,-2.4674,-2.4675,-2.4733,0,-2.4353,-2.4414,-2.4418,-2.4474,-2.4503,-2.4498,-2.4529,-2.455,-2.456,-2.4587,-2.4599,-2.463,-2.4616,-2.4627,-2.4651,-2.4665,-2.4698,-2.4661,-2.4701,-2.4703,-2.4694,-2.4762,-2.477,-2.4824,-2.4741,-2.4742,-2.4743,0,-2.4424,-2.4449,-2.4507,-2.4531,-2.4543,-2.4571,-2.46,-2.4626,-2.465,-2.4656,-2.4677,-2.4677,-2.4715,-2.4692,-2.4744,-2.4719,-2.4736,-2.4745,-2.4748,-2.4751,-2.4725,-2.4768,-2.4841,-2.4849,-2.4755,-2.4754,-2.4754,0,-2.4465,-2.4513,-2.4554,-2.4567,-2.4596,-2.4615,-2.4628,-2.4651,-2.467,-2.4696,-2.4709,-2.474,-2.4756,-2.4781,-2.479,-2.4772,-2.4841,-2.4819,-2.4848,-2.4848,-2.4862,-2.4861,-2.4939,-2.4874,-2.4874,-2.4873,-2.4873,0,-2.4525,-2.456,-2.4573,-2.4598,-2.4638,-2.4644,-2.4684,-2.4696,-2.4716,-2.4744,-2.4743,-2.477,-2.4779,-2.4808,-2.4816,-2.4858,-2.4866,-2.4872,-2.4873,-2.4872,-2.4871,-2.4883,-2.4879,-2.4876,-2.4875,-2.4875,-2.4874,0,-2.4577,-2.4586,-2.4631,-2.4654,-2.4661,-2.469,-2.471,-2.4735,-2.4745,-2.4781,-2.479,-2.4806,-2.484,-2.4851,-2.4892,-2.4897,-2.4947,-2.4945,-2.4938,-2.4938,-2.4966,-2.4964,-2.5055,-2.5067,-2.4993,-2.4994,-2.4995,0,-2.4614,-2.4641,-2.4668,-2.4686,-2.47,-2.4729,-2.4748,-2.4755,-2.4776,-2.4805,-2.4827,-2.486,-2.4887,-2.4942,-2.4958,-2.499,-2.4989,-2.5019,-2.4994,-2.4992,-2.499,-2.4988,-2.4991,-2.5023,-2.5024,-2.5025,-2.5025,0,-2.468,-2.4683,-2.471,-2.4739,-2.4762,-2.4785,-2.4808,-2.4823,-2.4834,-2.4857,-2.4891,-2.4912,-2.4954,-2.4988,-2.502,-2.5035,-2.5033,-2.5033,-2.5041,-2.504,-2.5035,-2.5038,-2.4951,-2.5031,-2.503,-2.503,-2.503,-2.5029,-2.4726,-2.475,-2.4772,-2.4802,-2.482,-2.4841,-2.4866,-2.4879,-2.4907,-2.4941,-2.4944,-2.4981,-2.5005,-2.5049,-2.5065,-2.5095,-2.5087,-2.5099,-2.5102,-2.5105,-2.5107,-2.503,-2.5101,-2.5101,-2.5101,-2.5101,-2.51,0,-2.4791,-2.4805,-2.4833,-2.4864,-2.4889,-2.4883,-2.4908,-2.4929,-2.4961,-2.4984,-2.501,-2.505,-2.5083,-2.5102,-2.5135,-2.5155,-2.5155,-2.5163,-2.5162,-2.5166,-2.5112,-2.5102,-2.5163,-2.5163,-2.5163,-2.5163,-2.5163,-2.5163,-2.4828,-2.4868,-2.4875,-2.4924,-2.4938,-2.4974,-2.4989,-2.5009,-2.5027,-2.5071,-2.5097,-2.5109,-2.5131,-2.5165,-2.5195,-2.52,-2.5212,-2.5222,-2.5226,-2.5176,-2.5169,-2.5163,-2.5153,-2.5225,-2.5225,-2.5277,-2.5277,-2.5278]},{"header":{"parameterUnit":"m.s-1","parameterCategory":1,"la1":30.2991,"la2":30.254,"lo1":-89.0895,"lo2":-89.0444,"dy":0.0017,"dx":0.0017,"nx":28,"ny":28,"refTime":"2025-05-20T03:00:00:Z","depth":0,"parameterNumber":3,"parameterNumberName":"V-component_of_WINDS"},"data":[0,0,0,0,0,0,0,0,0,0,0,0,0,0,0,0,0,0,0,0,0,0,0,0,0,0,0,0,0,0,0,0,0,0,0,0,0,0,0,0,0,0,0,0,0,0,0,0,0,0,0,0,0,0,0,0,0,0,4.9874,4.9875,0,4.9951,4.9952,4.9953,4.9919,4.9917,4.9916,4.9914,4.999,4.9994,4.9998,0,0,0,0,0,0,0,0,0,0,0,0,0,4.9699,4.9702,4.9874,4.9875,4.9876,4.9951,4.9952,4.9953,4.992,4.9917,4.9915,4.9913,4.9989,4.9994,4.9998,0,0,0,0,0,0,0,0,0,0,0,0,0,4.9775,4.9703,4.9874,4.9869,4.9869,4.9951,4.9952,4.9953,4.992,4.9917,4.9915,4.9912,4.9988,4.9993,4.9999,5.009,0,0,5.0016,5.0019,0,0,0,0,0,0,0,0,4.9771,4.9782,4.9869,4.9869,4.987,4.9923,4.9918,4.9999,4.9921,4.9901,4.9914,4.9911,4.997,4.9977,4.9997,5.0093,5.0097,5.0017,5.002,5.0023,5.0024,0,0,0,0,0,0,0,4.9766,4.9778,4.9905,4.987,4.9871,4.9862,4.987,4.9933,4.995,4.9902,4.99,4.991,4.997,4.9992,4.9999,5.0098,5.0017,5.0022,5.0025,5.0027,5.0274,5.0277,0,0,0,0,0,0,4.9761,4.9774,4.9902,4.9907,4.9813,4.9868,4.9876,4.9909,4.9949,4.9953,4.9912,4.9908,4.9984,4.9992,5.0002,5.0112,5.0022,5.0028,5.0031,5.0271,5.0275,5.0278,0,0,0,0,0,0,4.9757,4.9772,4.9899,4.984,4.9855,4.9874,4.991,4.9912,4.9934,4.9957,4.9959,4.9932,4.9982,4.9994,5.0069,5.0114,5.003,5.0036,5.0267,5.0272,5.0276,5.0332,0,0,0,0,0,0,4.9752,4.9771,4.9806,4.9841,4.9859,4.9965,4.9913,4.9915,4.9944,4.9939,4.9976,4.9979,4.9981,5.006,5.0074,5.012,5.004,5.0263,5.0269,5.0275,5.0326,5.0338,5.0348,0,0,0,0,0,4.9746,4.9818,4.9808,4.9823,4.9903,4.9968,4.9978,4.9978,4.9948,4.9983,4.9998,4.9978,5.0107,5.0068,5.0084,5.0132,5.026,5.0267,5.0274,5.0321,5.0335,5.0348,0,0,0,0,0,0,4.9786,4.9822,4.9811,4.9897,4.993,4.9962,5.0006,4.9994,5.0035,5.0029,5.0028,5.0036,5.0114,5.013,5.0087,5.0223,5.0179,5.0189,5.0209,5.0223,5.0234,5.0228,5.0045,0,0,0,0,0,4.9806,4.9856,4.9884,4.9957,4.9974,4.9987,5.0016,5.0014,5.0047,5.0061,5.0081,5.0114,5.0162,5.0193,5.0239,5.0329,5.0336,5.0369,5.038,5.0389,5.0398,5.0448,5.0463,5.0301,5.0301,5.0301,0,0,4.9845,4.9871,4.9902,4.9966,4.9991,5.0043,4.9999,5.0055,5.0094,5.0069,5.0141,5.0158,5.0195,5.0278,5.0315,5.0294,5.0445,5.0398,5.0405,5.0409,5.0457,5.0472,5.0486,5.0306,5.0305,5.0304,0,0,4.9943,4.9968,5.0032,5.0058,5.0097,5.0106,5.0122,5.0156,5.0167,5.024,5.0222,5.0268,5.035,5.0378,5.0402,5.0514,5.0498,5.0529,5.0586,5.0634,5.0647,5.0658,5.0698,5.0713,5.0538,5.0538,5.0538,0,4.9987,5.0065,5.0066,5.0124,5.0153,5.0134,5.0199,5.0224,5.0276,5.0296,5.0272,5.0376,5.0399,5.0489,5.0517,5.0537,5.0555,5.0524,5.0645,5.0657,5.0667,5.0705,5.072,5.0541,5.0541,5.0541,5.054,0,5.0117,5.0172,5.0219,5.027,5.0304,5.0365,5.0376,5.041,5.0406,5.0417,5.0493,5.052,5.0572,5.0593,5.0589,5.0683,5.0668,5.0645,5.06,5.0686,5.0722,5.0737,5.0546,5.0545,5.0544,5.0543,0,0,5.0242,5.0294,5.0311,5.0335,5.0378,5.042,5.0481,5.0532,5.0562,5.0599,5.065,5.0721,5.07,5.0729,5.0728,5.077,5.0858,5.0742,5.0742,5.0762,5.0964,5.0981,5.0998,5.0848,5.085,5.0853,5.0961,0,5.0343,5.045,5.0454,5.0552,5.0602,5.0586,5.064,5.0672,5.0685,5.073,5.0744,5.0795,5.0763,5.078,5.0822,5.0838,5.0898,5.0831,5.0895,5.0897,5.0886,5.1017,5.1035,5.1135,5.0975,5.0977,5.0979,0,5.0475,5.0518,5.0621,5.0658,5.068,5.0727,5.0775,5.0818,5.0855,5.0862,5.0894,5.0888,5.095,5.0905,5.0992,5.0946,5.0973,5.0985,5.0989,5.0994,5.0943,5.1026,5.1167,5.1182,5.1001,5.0999,5.0998,0,5.0556,5.0639,5.0712,5.0733,5.0777,5.0811,5.0832,5.0866,5.0897,5.0939,5.0959,5.1007,5.1034,5.1072,5.1079,5.1045,5.1166,5.1121,5.1173,5.1173,5.1198,5.1197,5.1346,5.1217,5.1216,5.1216,5.1216,0,5.0669,5.0733,5.0749,5.0793,5.0865,5.0869,5.0939,5.0957,5.0988,5.1036,5.1025,5.107,5.1077,5.1124,5.113,5.1201,5.1213,5.122,5.1221,5.1221,5.122,5.1238,5.1231,5.122,5.1219,5.1218,5.1218,0,5.077,5.0784,5.0862,5.0899,5.091,5.0961,5.0992,5.1035,5.1048,5.1109,5.1124,5.1143,5.1199,5.121,5.1274,5.1278,5.1363,5.1357,5.1351,5.135,5.1402,5.1397,5.1568,5.1591,5.1447,5.1448,5.1449,0,5.0841,5.089,5.0933,5.0965,5.0987,5.1038,5.107,5.1076,5.111,5.1157,5.1194,5.1249,5.1292,5.1381,5.1401,5.1451,5.1446,5.1503,5.1453,5.1452,5.1447,5.1444,5.1449,5.1512,5.1513,5.1515,5.1516,0,5.0966,5.097,5.1017,5.1067,5.1106,5.1145,5.1183,5.1209,5.1221,5.1259,5.1316,5.135,5.1418,5.1472,5.1522,5.1543,5.1532,5.1531,5.1546,5.1546,5.1541,5.1545,5.1377,5.1527,5.1526,5.1525,5.1524,5.1524,5.1054,5.1097,5.1135,5.1187,5.1217,5.1252,5.1295,5.1314,5.1361,5.1417,5.1418,5.148,5.1517,5.1584,5.1608,5.1657,5.1639,5.166,5.1666,5.1671,5.1676,5.1534,5.1666,5.1666,5.1666,5.1665,5.1665,0,5.1178,5.1202,5.1251,5.1304,5.1346,5.1333,5.1374,5.141,5.1465,5.1501,5.1544,5.161,5.1663,5.1689,5.1741,5.1776,5.1772,5.1789,5.1786,5.1792,5.1689,5.1671,5.1791,5.1791,5.1791,5.1791,5.1791,5.1791,5.1248,5.132,5.133,5.1417,5.144,5.1502,5.1527,5.156,5.1588,5.1663,5.1707,5.1724,5.1755,5.1811,5.1859,5.1865,5.1885,5.1905,5.1908,5.1812,5.1799,5.1786,5.177,5.1909,5.1909,5.2007,5.2008,5.2009]}]]